Temperature
22 18 18 19 19 19 21 21 20 22 23 24 23 23 24 27 27 25 24 23 23 23 24 24 23 23 22 22 21 21 20 20 19 19 19 18 18 17 17 17 16 16 16 16
20 18 19 20 21 21 21 20 20 21 23 24 23 23 23 24 25 26 26 24 24 23 23 23 23 22 22 21 21 21 21 20 19 19 19 18 18 17 17 16 15 15 15 15
18 19 21 21 21 21 21 20 21 21 22 23 24 23 22 23 26 27 28 27 25 24 23 22 22 22 21 21 21 21 20 19 19 18 18 18 17 17 16 15 15 14 14 14
19 21 22 22 21 21 20 22 22 22 22 20 23 20 21 22 23 24 26 27 25 24 23 22 22 21 21 21 20 20 20 19 18 18 18 17 17 16 15 15 14 13 13 13
19 21 21 21 22 22 22 22 23 24 22 20 20 20 19 20 23 23 23 27 26 24 22 21 21 21 20 19 19 19 19 18 18 17 17 16 16 15 14 13 13 13 12 12
21 22 22 22 24 23 23 23 21 18 18 19 20 21 19 20 22 23 22 25 26 23 21 19 18 18 18 18 18 18 18 17 17 16 16 16 15 14 13 13 12 12 12 12
21 22 23 23 23 23 23 19 18 19 17 18 19 20 19 21 21 21 20 21 23 22 18 17 17 17 17 17 17 18 17 17 16 16 15 15 14 13 13 13 12 12 12 11
19 20 22 23 23 22 20 19 18 18 18 18 20 20 19 20 19 19 18 19 19 18 17 16 17 17 17 17 17 17 17 16 15 15 14 14 13 13 12 12 12 12 11 10
19 20 23 24 24 22 21 19 19 17 18 18 18 20 20 19 17 17 16 16 16 16 16 16 16 16 16 16 16 16 15 15 14 14 13 13 12 12 12 11 11 10 9 9
20 20 22 24 24 23 22 20 16 16 17 17 19 20 19 18 17 16 16 15 15 15 15 15 15 15 15 15 15 14 14 14 13 12 12 12 11 11 11 10 10 9 8 8
19 19 21 23 22 22 22 21 19 16 16 17 17 17 18 17 16 15 14 14 14 14 15 15 15 15 15 14 14 13 13 12 11 11 11 11 10 10 10 9 9 8 8 7
17 17 19 21 22 23 22 21 19 18 17 16 16 16 16 15 14 14 13 13 13 14 14 14 14 13 13 13 12 12 11 11 11 10 10 10 9 9 8 8 8 7 7 6
17 16 17 18 19 20 21 20 19 17 16 15 16 15 15 14 14 13 12 12 12 12 12 12 12 12 11 11 11 11 10 10 10 10 10 9 8 8 7 7 7 6 6 6
17 15 16 17 18 19 20 20 19 17 15 15 16 15 14 14 13 12 11 11 11 11 11 10 10 10 10 10 10 10 9 9 9 9 8 8 7 7 6 6 6 6 5 5
15 15 16 17 18 19 20 20 20 18 16 15 15 14 14 13 13 12 11 11 10 10 10 10 10 10 10 9 9 9 9 8 8 8 7 7 6 6 6 6 5 5 5 5
13 14 15 15 17 18 18 19 19 18 17 15 14 13 13 12 12 11 11 11 10 10 10 10 10 10 9 9 9 8 8 7 7 7 6 6 6 6 5 5 5 4 4 4
13 13 13 13 15 17 16 16 16 15 15 15 13 13 12 12 12 11 11 11 10 9 9 9 9 9 9 8 8 7 7 6 6 6 6 5 5 5 4 4 4 4 4 4
13 13 11 13 14 15 15 15 15 14 13 13 13 12 11 10 9 10 10 10 10 9 9 9 8 8 8 7 7 6 6 6 5 5 5 5 4 4 4 4 4 4 3 3
12 13 12 11 13 14 15 15 15 13 12 13 12 11 9 10 10 9 9 9 9 9 9 8 7 7 6 6 5 5 5 5 5 4 4 4 4 4 4 4 3 3 2 2
11 11 11 11 13 13 13 14 15 13 11 13 12 11 10 10 9 8 8 8 8 8 7 7 6 5 5 5 5 5 5 4 4 4 4 4 4 4 3 3 2 2 2 1
11 10 11 10 11 12 12 14 14 12 10 12 12 12 10 8 8 7 7 7 7 6 6 5 5 5 5 5 4 4 4 4 4 4 4 4 4 3 3 2 2 1 1 1
10 10 10 10 10 11 12 12 11 10 12 12 12 11 10 8 7 6 6 6 6 5 5 4 4 4 4 4 5 5 5 4 4 4 4 4 3 3 2 2 1 1 1 0
10 10 9 10 9 11 12 12 12 12 12 12 11 11 10 7 6 6 6 5 5 5 4 4 4 4 5 5 5 5 5 5 4 4 4 4 3 2 2 1 1 1 0 0
10 11 10 10 10 10 11 11 12 12 12 11 11 10 9 8 6 5 5 5 4 4 4 4 5 5 5 5 5 5 5 5 4 4 4 3 3 2 1 1 1 1 0 -0
10 10 9 9 9 10 10 10 11 11 11 10 10 9 8 7 6 5 5 5 5 5 5 5 5 5 5 5 5 5 5 4 4 4 4 3 2 2 1 1 1 0 0 -0
7 7 8 7 8 8 9 9 10 10 9 9 8 7 6 6 5 5 5 5 5 5 5 5 5 5 5 5 5 5 4 4 4 4 3 3 2 2 2 1 1 0 -0 -1
Wind_Speed
5 5 7 9 8 8 6 7 10 13 13 8 11 14 17 17 12 12 17 20 21 22 16 13 14 15 14 14 15 14 17 14 13 12 11 10 7 6 6 6 11 14 15 14
3 8 11 8 7 7 9 11 13 13 13 6 7 8 10 11 11 12 16 18 18 14 13 15 14 14 15 14 12 11 14 13 13 11 9 7 8 7 6 5 9 13 14 13
13 9 8 9 9 10 11 12 15 14 14 7 3 8 9 9 4 5 10 13 16 22 25 22 17 14 14 13 12 11 13 12 11 12 11 12 8 6 5 6 6 7 12 12
11 13 9 10 12 12 13 13 14 13 9 6 1 4 10 8 9 7 7 6 11 18 21 22 19 17 15 11 9 9 11 11 12 13 14 14 9 7 5 5 5 6 9 11
9 10 14 15 19 14 14 15 10 5 2 3 6 1 9 8 8 11 11 9 9 16 21 22 19 15 12 10 9 10 11 12 12 12 13 12 10 8 6 6 7 5 5 9
12 9 10 15 19 16 14 5 4 6 6 3 6 1 8 8 10 11 8 7 7 14 14 12 11 12 11 10 11 11 13 12 12 13 13 13 14 12 10 8 6 4 4 4
10 13 10 9 10 11 6 5 3 4 4 7 5 3 10 12 9 7 4 3 3 12 15 15 14 13 13 13 13 13 15 13 12 14 13 14 14 12 10 9 7 6 4 4
10 11 10 9 11 10 7 12 10 7 6 6 4 5 6 7 8 9 10 10 14 16 16 15 14 14 14 13 13 13 15 14 13 13 13 12 11 8 6 6 6 7 5 4
10 10 10 10 10 11 8 7 12 9 6 2 6 6 4 9 13 14 14 15 15 16 16 15 14 14 13 12 11 12 14 13 12 12 12 11 10 9 8 8 8 7 6 4
10 7 7 6 3 5 12 11 7 7 7 5 5 4 3 1 7 11 13 13 14 14 14 14 13 14 13 12 12 11 11 12 11 10 10 10 10 10 11 11 10 8 6 4
3 6 4 3 3 3 2 6 6 7 7 8 4 5 4 3 9 13 12 11 12 12 12 12 12 13 14 14 13 12 11 11 11 10 10 10 10 9 9 9 8 7 5 4
5 4 2 3 3 1 3 3 6 6 6 7 7 4 8 3 10 13 13 11 10 10 9 10 12 13 13 13 13 12 11 11 10 10 9 9 8 8 8 8 7 6 5 4
5 5 3 6 7 8 7 6 3 5 3 3 5 3 5 9 11 11 11 10 9 8 8 8 9 10 11 12 13 12 11 10 9 9 9 8 8 8 8 7 6 6 6 7
4 5 4 3 2 4 5 5 3 6 5 3 3 6 4 7 10 9 8 8 8 7 7 7 8 8 9 10 11 11 9 9 9 8 8 7 7 7 8 8 8 8 9 8
5 5 4 2 5 6 6 8 3 3 7 7 8 7 4 7 11 10 9 8 8 7 7 8 8 8 9 9 9 9 8 7 8 9 9 8 8 9 9 9 9 8 7 6
6 5 6 9 10 7 7 10 6 5 6 11 12 7 3 7 8 9 9 10 8 7 7 8 9 9 9 10 10 11 10 10 10 11 10 10 9 9 8 7 6 6 6 6
4 4 4 5 9 6 9 11 8 8 6 7 6 6 7 9 8 5 6 8 8 7 7 8 8 8 9 9 11 11 11 11 11 10 9 8 7 7 6 6 6 6 5 5
3 3 3 3 7 4 2 9 15 15 14 12 12 9 9 11 9 9 7 5 7 8 8 8 9 9 9 10 10 10 10 10 9 7 5 4 4 5 6 6 6 4 3 3
3 5 3 3 2 3 2 6 3 7 7 7 10 10 9 8 7 9 10 7 7 8 9 9 9 10 10 9 9 9 8 7 6 4 2 3 4 6 6 5 4 2 3 3
7 5 5 4 3 3 2 8 3 11 5 3 7 8 8 4 2 2 4 8 10 10 9 9 9 10 9 7 7 7 5 4 3 3 3 4 6 7 6 4 3 3 4 4
5 5 4 3 2 1 4 7 4 5 4 1 6 6 6 4 4 7 8 8 9 10 9 9 9 8 6 5 4 3 3 3 3 4 7 8 7 6 5 4 4 5 5 5
1 2 1 2 2 5 5 5 4 5 4 5 6 6 9 10 11 10 10 10 10 10 8 8 7 5 3 2 2 2 2 3 5 7 8 7 6 6 6 6 5 5 5 4
2 3 3 3 5 3 2 5 4 5 5 4 6 8 12 12 10 10 9 9 9 8 7 5 6 4 1 1 1 2 3 6 8 8 8 7 7 6 5 5 5 4 3 3
4 1 3 3 2 2 4 5 5 5 5 5 8 10 9 10 11 10 10 8 7 6 5 4 4 1 1 1 0 2 3 6 8 8 7 6 5 4 3 4 4 3 2 2
4 4 2 2 2 4 5 4 4 6 7 8 8 8 10 13 12 11 9 8 6 5 4 3 2 1 0 2 3 3 4 6 7 8 6 5 4 4 3 3 3 4 2 3
3 1 2 3 3 2 2 1 3 6 6 9 11 9 9 10 12 11 9 6 6 5 4 3 1 2 4 6 6 5 5 6 8 7 6 4 3 3 3 3 1 1 3 4
Wind_Direction
200 150 211 224 207 198 227 267 276 278 282 291 271 262 264 266 250 202 191 197 201 203 197 183 176 168 164 164 164 163 163 159 147 140 136 130 119 101 84 80 93 98 100 97
230 234 223 216 233 236 245 260 271 283 283 260 262 273 275 271 238 194 185 193 199 186 174 174 172 171 170 165 158 156 165 159 153 148 140 128 120 103 86 74 73 83 89 88
205 231 220 221 242 244 248 237 250 257 282 313 333 328 324 320 311 204 191 183 180 178 177 176 172 172 165 163 161 161 163 155 145 137 125 118 105 97 92 91 81 74 84 88
218 234 237 228 235 230 250 240 235 244 249 278 38 287 297 303 320 302 271 226 185 179 174 173 170 168 165 156 144 141 145 138 133 133 134 135 132 126 122 117 109 99 98 100
226 217 217 234 243 235 237 246 231 225 199 346 353 1 286 304 290 280 280 271 212 183 175 174 169 158 141 130 128 123 122 122 122 122 126 121 115 113 116 111 107 94 90 102
232 235 207 221 239 236 229 221 38 51 66 328 272 260 286 267 251 264 279 287 228 176 162 143 124 117 112 109 105 107 106 106 114 117 119 124 128 131 136 136 131 118 103 95
259 261 251 236 253 260 190 124 42 346 359 261 272 255 255 269 271 258 269 339 94 130 129 121 120 118 114 108 104 105 106 106 112 116 120 127 132 139 147 148 146 143 125 108
229 262 248 228 216 223 199 151 162 189 217 268 315 233 267 321 32 56 71 80 92 103 112 112 114 115 114 111 109 111 110 111 111 113 117 120 122 125 132 137 141 142 128 125
200 238 257 247 228 178 162 173 170 152 178 221 276 274 333 40 61 66 75 81 89 97 101 103 103 104 106 105 104 109 111 108 106 108 110 112 111 107 105 104 105 111 108 111
188 229 276 278 300 230 176 157 109 132 168 226 266 280 288 328 103 98 95 94 93 94 94 95 98 101 102 101 99 96 99 103 101 98 99 104 100 100 103 104 104 111 114 112
170 190 283 26 60 296 123 132 133 145 163 170 219 265 300 252 148 125 111 100 100 100 101 102 104 108 111 110 107 101 95 95 95 95 95 95 94 97 99 103 109 115 117 118
5 130 203 259 283 293 85 114 144 169 217 168 159 229 343 54 123 123 116 107 102 103 104 109 112 113 115 114 109 105 102 101 100 99 96 93 90 90 93 95 95 97 94 75
19 66 51 353 3 14 48 42 76 130 119 143 154 172 35 88 107 113 113 108 102 97 95 97 102 111 116 115 113 112 111 110 108 104 99 93 90 92 96 94 88 77 65 54
72 68 106 125 343 333 345 359 67 103 110 107 125 125 111 122 125 119 109 102 97 91 90 92 96 103 108 109 113 114 111 112 110 103 96 92 92 93 93 83 71 65 65 66
58 51 29 31 15 18 3 354 1 119 147 145 146 128 142 153 141 131 123 113 106 103 100 99 104 107 108 106 103 101 98 98 103 98 91 87 85 82 78 73 71 73 75 78
36 39 30 10 4 15 25 17 54 76 105 120 115 100 95 111 118 124 131 131 135 140 128 114 111 112 109 105 100 93 85 82 87 88 85 82 79 79 77 83 91 90 82 68
11 46 52 357 341 25 22 2 64 63 54 128 124 127 124 99 88 103 138 145 156 148 126 111 103 97 95 93 94 90 87 84 82 80 80 79 83 90 96 100 94 88 80 69
135 87 100 37 33 49 70 58 74 69 50 69 99 109 103 102 82 52 48 126 139 127 114 105 101 95 89 90 87 84 79 79 80 77 75 81 100 105 107 102 94 85 79 77
138 135 109 98 76 315 50 23 37 103 55 58 105 114 120 120 74 41 33 60 100 111 113 109 107 103 96 89 89 89 84 84 85 90 98 116 119 114 108 100 91 77 74 56
34 76 107 111 137 221 300 328 25 107 79 39 112 136 159 164 113 122 73 88 99 106 111 112 107 101 96 91 92 98 104 110 123 127 105 100 108 108 107 102 82 63 72 64
10 28 70 105 165 241 312 324 35 120 168 152 111 122 130 135 138 128 116 109 113 114 114 112 108 106 111 112 106 119 140 154 148 115 100 99 106 108 103 85 75 74 75 63
47 53 53 120 191 244 327 34 86 154 156 122 118 121 121 122 119 123 127 128 127 123 116 112 112 115 121 114 115 127 165 155 128 118 110 105 99 94 92 88 78 75 77 60
84 188 190 183 209 217 75 107 134 147 125 128 138 142 137 135 138 135 136 135 132 127 120 113 116 115 77 348 120 112 146 136 127 120 116 110 97 89 102 109 101 77 64 54
335 18 77 42 26 51 62 81 81 96 112 120 134 139 137 136 139 137 137 136 133 124 119 109 108 104 302 299 188 161 153 133 127 129 130 125 118 116 116 122 122 111 91 58
309 359 45 58 59 55 44 58 86 86 92 102 111 120 132 135 136 135 135 137 136 127 120 129 154 212 205 104 94 97 105 112 123 134 142 143 150 156 155 146 154 149 163 165
344 51 147 216 228 191 228 270 111 107 108 115 114 108 118 127 131 132 135 139 141 144 154 176 194 132 113 103 93 81 80 97 116 132 148 159 168 171 167 155 112 159 181 186
Height
1481 1490 1495 1493 1493 1496 1496 1499 1502 1492 1480 1483 1484 1481 1472 1464 1464 1467 1470 1472 1473 1474 1478 1484 1488 1492 1497 1501 1504 1507 1510 1513 1516 1518 1520 1524 1528 1531 1534 1536 1538 1539 1540 1541
1485 1490 1484 1483 1486 1490 1494 1500 1499 1490 1478 1480 1481 1478 1469 1462 1459 1460 1464 1467 1468 1472 1477 1481 1485 1489 1493 1497 1502 1505 1508 1509 1511 1513 1516 1520 1523 1527 1530 1533 1534 1536 1537 1538
1486 1482 1478 1482 1486 1490 1492 1496 1494 1492 1480 1478 1478 1482 1474 1464 1459 1458 1459 1460 1462 1464 1468 1473 1478 1483 1488 1493 1497 1501 1504 1506 1509 1511 1513 1516 1520 1523 1526 1528 1531 1533 1535 1536
1479 1476 1477 1480 1483 1485 1492 1481 1481 1482 1488 1493 1483 1501 1483 1471 1464 1459 1458 1458 1458 1459 1461 1465 1471 1476 1482 1489 1496 1500 1503 1506 1507 1509 1510 1512 1516 1519 1522 1525 1528 1531 1533 1534
1475 1471 1475 1479 1475 1475 1478 1471 1474 1474 1481 1490 1489 1498 1493 1474 1469 1460 1455 1454 1455 1457 1458 1461 1466 1472 1481 1489 1495 1499 1502 1504 1506 1508 1510 1513 1516 1520 1523 1525 1528 1530 1531 1533
1467 1463 1465 1466 1462 1464 1465 1469 1474 1483 1493 1505 1494 1497 1498 1477 1465 1457 1453 1451 1451 1454 1459 1464 1470 1477 1484 1490 1494 1497 1500 1503 1505 1508 1510 1513 1516 1519 1522 1525 1527 1529 1530 1532
1470 1463 1460 1459 1463 1460 1464 1483 1503 1505 1515 1510 1491 1493 1491 1464 1456 1454 1452 1451 1449 1453 1460 1467 1474 1480 1485 1490 1494 1497 1499 1501 1504 1507 1509 1512 1516 1519 1522 1524 1526 1528 1530 1532
1479 1474 1456 1452 1456 1462 1464 1474 1502 1514 1517 1508 1490 1493 1482 1464 1459 1456 1455 1454 1453 1457 1463 1470 1477 1482 1487 1491 1494 1497 1498 1501 1504 1507 1508 1511 1515 1518 1520 1523 1525 1528 1530 1531
1470 1468 1447 1443 1443 1449 1462 1470 1470 1491 1499 1505 1501 1484 1475 1469 1467 1465 1464 1463 1464 1466 1470 1475 1480 1485 1489 1493 1496 1498 1499 1502 1505 1507 1509 1511 1514 1517 1520 1522 1525 1528 1530 1531
1453 1461 1449 1441 1439 1441 1445 1454 1478 1492 1507 1514 1499 1489 1487 1476 1474 1473 1473 1472 1473 1475 1477 1481 1484 1488 1491 1495 1498 1499 1502 1504 1506 1508 1511 1513 1515 1518 1520 1522 1525 1527 1529 1530
1449 1460 1454 1447 1449 1452 1448 1454 1464 1482 1489 1504 1509 1500 1479 1475 1475 1475 1478 1479 1480 1481 1483 1485 1488 1490 1493 1495 1499 1501 1504 1506 1508 1511 1513 1515 1517 1519 1522 1523 1525 1527 1528 1529
1454 1460 1463 1453 1444 1440 1442 1448 1460 1479 1484 1488 1497 1500 1479 1476 1477 1479 1481 1484 1485 1486 1488 1489 1490 1492 1494 1496 1499 1502 1506 1509 1511 1513 1515 1517 1518 1520 1522 1524 1525 1527 1527 1528
1456 1465 1472 1468 1463 1452 1452 1455 1456 1466 1478 1488 1496 1498 1484 1482 1483 1485 1486 1487 1489 1491 1492 1493 1494 1495 1496 1497 1499 1503 1507 1510 1512 1514 1516 1517 1518 1520 1522 1524 1525 1526 1527 1527
1456 1468 1475 1480 1475 1464 1462 1458 1459 1467 1484 1487 1486 1490 1488 1487 1487 1489 1491 1492 1493 1495 1496 1496 1497 1498 1500 1501 1503 1505 1507 1509 1512 1514 1516 1517 1519 1521 1522 1524 1525 1525 1525 1525
1462 1471 1468 1467 1463 1461 1460 1459 1458 1464 1470 1480 1484 1487 1488 1487 1488 1490 1493 1495 1497 1499 1500 1499 1500 1501 1502 1503 1505 1506 1507 1509 1511 1513 1516 1518 1520 1521 1522 1523 1524 1524 1525 1525
1470 1474 1472 1472 1464 1462 1464 1461 1459 1463 1466 1474 1482 1488 1487 1488 1489 1490 1492 1494 1498 1501 1501 1501 1501 1502 1503 1504 1505 1506 1508 1510 1512 1514 1516 1519 1520 1522 1523 1523 1524 1524 1525 1524
1477 1479 1483 1484 1473 1466 1478 1472 1468 1471 1470 1473 1483 1489 1490 1491 1492 1493 1494 1495 1498 1500 1501 1502 1502 1503 1504 1505 1506 1508 1510 1512 1515 1516 1518 1520 1521 1522 1523 1524 1525 1524 1523 1522
1477 1481 1488 1488 1484 1491 1492 1478 1476 1479 1482 1480 1483 1489 1492 1494 1495 1495 1495 1497 1499 1500 1501 1502 1503 1504 1506 1506 1508 1510 1513 1515 1517 1519 1520 1522 1523 1524 1524 1525 1524 1523 1522 1520
1473 1479 1487 1493 1492 1490 1483 1481 1480 1486 1492 1489 1490 1493 1495 1495 1495 1498 1499 1500 1500 1501 1502 1504 1505 1506 1507 1508 1510 1512 1514 1517 1519 1521 1522 1524 1524 1525 1525 1524 1523 1522 1520 1518
1476 1479 1488 1492 1494 1497 1492 1483 1481 1486 1497 1493 1491 1494 1495 1496 1500 1503 1502 1502 1502 1503 1504 1505 1506 1508 1509 1511 1513 1515 1517 1519 1521 1523 1524 1525 1525 1525 1525 1524 1522 1521 1519 1517
1487 1489 1492 1496 1496 1492 1489 1483 1481 1494 1501 1494 1493 1494 1495 1497 1499 1501 1502 1503 1503 1504 1505 1507 1508 1510 1512 1514 1516 1518 1520 1522 1523 1525 1525 1526 1526 1525 1524 1523 1522 1520 1519 1517
1492 1495 1494 1496 1499 1500 1488 1486 1491 1495 1493 1493 1494 1494 1494 1496 1499 1501 1502 1503 1504 1505 1507 1509 1510 1513 1515 1517 1519 1521 1522 1524 1525 1526 1526 1526 1526 1525 1524 1523 1521 1520 1518 1516
1494 1494 1494 1495 1498 1491 1488 1489 1490 1491 1492 1493 1493 1494 1494 1496 1499 1501 1503 1504 1505 1507 1509 1512 1514 1516 1518 1520 1522 1523 1524 1525 1526 1527 1527 1527 1526 1525 1524 1523 1521 1520 1517 1515
1492 1489 1491 1493 1492 1490 1490 1490 1490 1490 1491 1492 1492 1493 1494 1496 1498 1501 1503 1505 1508 1510 1513 1515 1517 1519 1521 1523 1524 1525 1526 1527 1527 1527 1527 1527 1526 1525 1524 1523 1521 1519 1517 1514
1494 1492 1493 1493 1493 1492 1491 1491 1491 1491 1491 1491 1492 1494 1495 1496 1499 1502 1505 1508 1511 1514 1517 1519 1521 1523 1524 1526 1527 1527 1528 1528 1528 1527 1527 1527 1526 1525 1524 1522 1521 1519 1517 1514
1496 1496 1496 1496 1493 1492 1491 1491 1491 1490 1491 1491 1492 1494 1496 1498 1500 1504 1508 1512 1515 1518 1520 1522 1524 1525 1527 1528 1528 1529 1528 1528 1527 1527 1527 1527 1526 1525 1524 1522 1521 1518 1516 1514